This demonstration page uses our WeatherBlox Daily Observations layout. Learn more.

Left ArrowRight Arrow

Hourly Observations for July 1, 2021

Temp ( °F °C ) Dew Point ( °F °C ) Humidity (%) Winds ( mph kmh ) Pressure ( in mb ) Visibility ( mi km ) Precip ( " mm )
12:59 am 00:59 Mostly Clear 81 27.2 72 22.2 74 74 SSW 13 20 30.02 1017 10 16 0.00 0.00
1:59 am 01:59 Mostly Clear 80 26.7 71 21.7 74 74 SSW 12 19 30.01 1016 10 16 0.00 0.00
2:59 am 02:59 Mostly Clear 80 26.7 71 21.7 74 74 SSW 14 22 30.00 1016 10 16 0.00 0.00
3:59 am 03:59 Partly Cloudy 79 26.1 71 21.7 77 77 SW 9 15 29.99 1016 10 16 0.00 0.00
4:59 am 04:59 Partly Cloudy 79 26.1 71 21.7 77 77 SW 7 11 29.98 1015 10 16 0.00 0.00
5:59 am 05:59 Partly Cloudy 78 25.6 71 21.7 79 79 SW 7 11 29.98 1015 10 16 0.00 0.00
6:59 am 06:59 Mostly Sunny 78 25.6 71 21.7 79 79 SSW 9 15 29.98 1015 10 16 0.00 0.00
7:59 am 07:59 Mostly Sunny 80 26.7 72 22.2 76 76 SW 12 19 29.99 1016 10 16 0.00 0.00
8:59 am 08:59 Mostly Sunny 83 28.3 72 22.2 70 70 WSW 9 15 29.98 1015 10 16 0.00 0.00
9:59 am 09:59 Mostly Sunny 84 28.9 72 22.2 67 67 SW 10 17 29.96 1015 10 16 0.00 0.00
10:59 am 10:59 Mostly Sunny 86 30 73 22.8 65 65 SSW 10 17 29.96 1015 10 16 0.00 0.00
11:59 am 11:59 Mostly Sunny 88 31.1 73 22.8 61 61 SW 10 17 29.96 1014 10 16 0.00 0.00
12:59 pm 12:59 Mostly Sunny 91 32.8 73 22.8 56 56 SW 13 20 29.93 1014 10 16 0.00 0.00
1:59 pm 13:59 Partly Cloudy 91 32.8 71 21.7 52 52 SW 13 20 29.91 1013 10 16 0.00 0.00
2:59 pm 14:59 Mostly Cloudy 92 33.3 72 22.2 52 52 SSW 14 22 29.87 1012 10 16 0.00 0.00
3:20 pm 15:20 Mostly Cloudy with Nearby Thunderstorms 92 33.3 71 21.7 51 51 SW 13 20 29.87 1011 10 16 0.00 0.00
3:31 pm 15:31 Mostly Cloudy with Thunderstorms 91 32.8 71 21.7 52 52 SSW 13 20 29.87 1011 10 16 0.00 0.00
3:46 pm 15:46 Mostly Cloudy 92 33.3 72 22.2 52 52 SSW 13 20 29.86 1011 10 16 0.00 0.00
3:59 pm 15:59 Mostly Cloudy 92 33.3 71 21.7 51 51 SSW 15 24 29.85 1011 10 16 0.00 0.00
4:59 pm 16:59 Mostly Cloudy 91 32.8 71 21.7 52 52 SSW 15 24 29.84 1011 10 16 0.00 0.00
5:59 pm 17:59 Mostly Cloudy 89 31.7 70 21.1 53 53 SSW 12 19 29.85 1011 10 16 0.00 0.00
6:59 pm 18:59 Mostly Cloudy 88 31.1 70 21.1 55 55 SW 15 24 29.85 1011 10 16 0.00 0.00
7:59 pm 19:59 Mostly Cloudy 86 30 69 20.6 57 57 SW 13 20 29.86 1011 10 16 0.00 0.00
8:59 pm 20:59 Mostly Cloudy 83 28.3 70 21.1 65 65 W 15 24 29.88 1012 10 16 0.00 0.00
9:09 pm 21:09 Mostly Cloudy 81 27.2 69 20.6 67 67 NW 20 31 29.89 1012 10 16 0.00 0.00
9:59 pm 21:59 Mostly Cloudy 79 26.1 68 20 69 69 WSW 3 6 29.88 1012 10 16 0.00 0.00
10:59 pm 22:59 Mostly Cloudy 78 25.6 70 21.1 76 76 S 5 7 29.88 1012 10 16 0.00 0.00
11:59 pm 23:59 Mostly Cloudy 82 27.8 70 21.1 67 67 SSW 15 24 29.85 1011 10 16 0.00 0.00

Powered by AerisWeather